Вернуться в каталог

STARLINK-33570

АктивенСвязьVLEO
NORAD 62776·PAYLOAD·🇺🇸 United States

Запущен Jan 21, 2025 с Vandenberg Space Force Base

Loading…

Ближайшие Пролёты (ближайшие 24 часа)

TLE

СвежийSource: CelesTrak SupGP

Эпоха: Sep 14, 2026, 20:56 UTC

1 62776C 25015U   26257.87270833 -.00018624  00000+0 -55044-3 0  2571
2 62776  53.1564 159.8347 0001354 114.8755 139.9833 15.34388702    13

Отслеживайте STARLINK-33570 в реальном времени с AllMySat

Download on the App Store